Location: ??????
(41.3794°N, 22.5014°E)
Time: 20:23:40
(UTC+00:00)

Cosmos 1680 Rocket - Pass Details

Date: 30 November 2020
Orbit: 760 x 781 km, 74.1° (Epoch: 18 January)

Event Time Altitude Azimuth Distance (km) Brightness Sun altitude
Rises 16:36:37 0° 176° (S) 3,224 6.9 -17.4°
Reaches altitude 10° 16:39:06 10° 168° (SSE) 2,306 6.0 -17.9°
Maximum altitude 16:43:55 38° 102° (ESE) 1,171 4.0 -18.7°
Enters shadow 16:44:45 36° 80° (E) 1,224 4.0 -18.9°
